Regional Weather Roundup
Issued by NWS Wakefield, VA

Home | Current Version | Previous Version | Graphics & Text | Print | Product List | Glossary On
Versions: 1 2 3 4 5 6 7 8 9 10 11 12 13 14 15 16 17 18 19 20 21 22 23 24 25 26 27 28 29 30 31 32 33 34 35 36 37 38 39 40 41 42 43 44 45 46 47 48 49 50
000
ASUS41 KAKQ 201310
RWRAKQ

REGIONAL WEATHER ROUNDUP
NATIONAL WEATHER SERVICE WAKEFIELD VA
900 AM EDT SAT SEP 20 2014

Note: "fair" indicates few or no clouds below 12,000 feet with no
significant weather and/or obstructions to visibility. * = Denotes
station may not report precipitation (e.g., rain,snow,etc.),
thunder or fog.

VAZ042-051-052>054-056-201400-
NORTHERN VIRGINIA

CITY           SKY/WX    TMP DP  RH WIND       PRES   REMARKS
WASH NATIONAL  MOSUNNY   70  60  70 CALM      30.26S
DULLES         PTSUNNY   63  61  93 W3        30.27R FOG
FORT BELVOIR   SUNNY     66  62  87 CALM      30.27R
QUANTICO       SUNNY     67  62  84 CALM      30.27R
FREDERICKSBRG* SUNNY     65  63  93 CALM      30.25S
STAFFORD*      SUNNY     63  63 100 CALM      30.30R
WARRENTON      MOSUNNY   63  63 100 CALM      30.26S
CULPEPER*      SUNNY     61  61 100 CALM      30.27S
MANASSAS*      CLOUDY    63  63 100 CALM      30.27R VSB 1/4
LEESBURG*      CLOUDY    63  63 100 S3        30.27S FOG
WINCHESTER     MOSUNNY   64  59  82 S5        30.25R
FRONT ROYAL*   PTSUNNY   64  57  77 SW3       30.24S
LURAY*         PTSUNNY   68  59  73 CALM      30.25S
$$

VAZ048-049-060>072-079>083-201400-
CENTRAL AND SOUTH CENTRAL VIRGINIA...AND NORTH CENTRAL NORTH CAROLINA

CITY           SKY/WX    TMP DP  RH WIND       PRES   REMARKS
RICHMOND       MOSUNNY   66  60  81 N5        30.24S
CHESTERFIELD*  SUNNY    N/A N/A N/A N5        30.26R
PETERSBURG*    SUNNY     65  60  85 N6        30.24S
HANOVER        SUNNY     66  61  84 CALM      30.27S
TAPPAHANNOCK*  SUNNY     65  61  86 CALM      30.25S
CHARLOTTSVILLE NOT AVBL
ORANGE*        SUNNY     64  59  82 CALM      30.27S
LOUISA*        SUNNY     66  59  77 CALM      30.25S
FARMVILLE*     SUNNY     64  63  94 NE5       30.24S
CREWE*         SUNNY     65  59  80 CALM      30.24F
FORT PICKETT*  SUNNY     64  60  86 N3        30.24S
LUNENBURG*     SUNNY     65  60  84 CALM      30.24S
SOUTH HILL*    SUNNY     66  63  88 N3        30.28F
LAWRENCEVILLE* SUNNY     64  61  88 NE3       30.23S
ROANOKE RAPIDS SUNNY     63  59  88 N7        30.22R
RALEIGH        MOSUNNY   64  58  80 NE9       30.22F
$$

VAZ088>098-201400-
SOUTHEAST VIRGINIA

CITY           SKY/WX    TMP DP  RH WIND       PRES   REMARKS
NORFOLK        MOSUNNY   72  66  81 NE12      30.20S
VIRGINIA BEACH PTSUNNY   73  67  81 E14       30.19S
NORFOLK NAVAL  PTSUNNY   74  66  76 NE14      30.22S
WEST POINT*    SUNNY     68  65  90 CALM      30.25F
NEWPORT NEWS   MOSUNNY   75  66  73 NE7       30.22S
LANGLEY AFB    MOSUNNY   73  68  86 E10       30.21S
FORT EUSTIS    SUNNY     72  72 100 VRB2      30.21S
WILLIAMSBURG*  SUNNY     66  66 100 CALM      30.24S
HR EXEC AP*    MOSUNNY   66  64  94 CALM      30.23S
FRANKLIN*      MOSUNNY   63 N/A N/A CALM      30.22S
WAKEFIELD      SUNNY     67  62  84 N5        30.23S
$$

VAZ020-022-025-037-045-201400-
WEST CENTRAL AND SOUTHWEST VIRGINIA

CITY           SKY/WX    TMP DP  RH WIND       PRES   REMARKS
STAUNTON*      SUNNY     62  56  80 SE3       30.28S
HOT SPRINGS VA MOSUNNY   55  38  53 S8        30.33F
LYNCHBURG      SUNNY     64  59  83 N5        30.27S
DANVILLE       SUNNY     65  59  81 NE5       30.24F
SOUTH BOSTON*  NOT AVBL
MARTINSVILLE   SUNNY     65  62  92 N5        30.28S
ROANOKE        MOSUNNY   64  59  83 CALM      30.29S
BLACKSBURG     CLOUDY    59  59 100 CALM      30.31S FOG
DUBLIN*        CLOUDY    60  60 100 CALM      30.30F FOG
MARION*        PTSUNNY   62  57  83 NE8       30.31S
HILLSVILLE*    CLOUDY    59  54  85 CALM      30.30S
RICHLANDS*     SUNNY     65  58  78 SE5       30.26R
WISE*          MOSUNNY   63  54  72 S7        30.27S
ABINGDON*      SUNNY     64  59  83 E7        30.25S
$$

MDZ021>025-VAZ099-100-201400-
SOUTHERN MARYLAND AND THE DELMARVA PENINSULA

CITY           SKY/WX    TMP DP  RH WIND       PRES   REMARKS
PATUXENT RIVER MOSUNNY   70  63  78 E8        30.24F
BAY BRIDGE APT   N/A     68  59  73 SE8       30.25F
LEONARDTOWN    SUNNY     68  63  83 E3        30.26S
DOVER          MOSUNNY   70  63  79 E8        30.24S
GEORGETOWN     CLOUDY    67  62  84 E6        30.26S
EASTON         SUNNY     66  66 100 CALM      30.29S
CAMBRIDGE      SUNNY     70  61  73 E3        30.25S
SALISBURY      PTSUNNY   67  61  81 CALM      30.25S
OCEAN CITY     CLOUDY    72  63  73 SE14      30.25R
WALLOPS ISLAND CLOUDY    71  64  78 E5        30.24S
ACCOMACK*      SUNNY     70  63  78 E6        30.23S
$$

NCZ012>017-030>032-201400-
EASTERN NORTH CAROLINA

CITY           SKY/WX    TMP DP  RH WIND       PRES   REMARKS
ELIZABETH CITY CLOUDY    72  68  87 NE12      30.18S
AHOSKIE*       SUNNY     63  59  89 N6        30.21F
EDENTON*       CLOUDY    67  66  94 N6        30.17S
CURRITUCK*     CLOUDY    73  66  81 NE10      30.19S
KILL DEVIL HLS CLOUDY    74  69  85 NE9G17    30.14S
MANTEO         CLOUDY    73  69  86 NE13G23   30.15F
CAPE HATTERAS  LGT RAIN  70  70 100 NE8G17    30.11S FOG
TARBORO*       MOSUNNY   63  59  89 N6        30.21R
GOLDSBORO      MOSUNNY   66  65  97 N1        30.16S
WASHINGTON     CLOUDY    68  64  88 N10       30.16S
GREENVILLE     MOSUNNY   64  63  94 N6        30.19S
NEW BERN       CLOUDY    71  65  81 N7        30.14F
WILMINGTON     CLOUDY    68  63  84 NE13      30.11S
$$

VAZ048-201400-
ELSEWHERE

CITY           SKY/WX    TMP DP  RH WIND       PRES   REMARKS
HARRISBURG PA  CLOUDY    62  57  83 E8        30.26R FOG
BALTIMORE      MOSUNNY   66  60  81 E3        30.26S
ANNAPOLIS      SUNNY     69  63  81 SE9       30.25F
ANDREWS AFB    SUNNY     67  63  88 SE6       30.25F
WILMINGTON DE  PTSUNNY   66  58  75 VRB3      30.28S
PHILADELPHIA   MOSUNNY   64  58  80 E6        30.29R
WILDWOOD NJ*   PTSUNNY   72  59  64 SE8       30.27S
ATLANTIC CITY  SUNNY     70  61  73 SE12      30.27F
HENDERSON NC   SUNNY     63  59  86 NE6       30.23F
GREENSBORO     MOSUNNY   62  59  90 NE8       30.23F
ROCKY MOUNT    MOSUNNY   64  59  83 NE9       30.20S
FAYETTEVILLE   PTSUNNY   64  60  87 N12       30.16S
CHARLOTTE      MOSUNNY   65  59  81 N8        30.22R
$$

VAZ100-201400-
MARINE

STATION/POSITION TIME  TEMP    WIND        PRES    WAVE   SWELL
                       AIR SEA DIR/SP/G            HT/PER HT/PER
                 (UTC) (F)     (DEG/KT/KT) (MB)    (FT/S) (FT/S)
44066 TX TWR #4  1300   69 72  100/ 14/ 16 1025.7F   4/ 9   3/ 9
CAPE MAY NJ      1300   71 74  110/  9/ 12 1024.1S
LEWES DE         1300   71 71  130/  8/ 13 1024.1S
15NM E FENWICK I 1300   72 71              1023.9R   5/ 7
OCEAN-CITY-INLET 1300   72 71  120/  9/ 14 1023.8R
WACHAPREAGUE VA  1300   71 72   90/ 10/ 13 1023.6R
THOMAS POINT MD  1300   68 73  140/ 11/ 11 1025.4F
GOOSES REEF MD   1300   68     100/  8/ 10 1024.9S
COVE POINT MD    1300   67     120/  8/ 10 1024.3R
SOLOMONS ISLAND  1300      75                N/A
BISHOPS HEAD MD  1300   66 70   20/  5/  8 1023.9R
PINEY POINT MD   1300          100/  8/  9   N/A
POTOMAC MD       1300   70      70/  8/  8 1023.6R
CAMBRIDGE MD     1300   66 74   90/  4/  6 1024.2R
LEWISETTA VA     1300   70 73  100/  7/  8 1023.7S
RAPPAHANNOCK LGT 1300           80/ 12/ 15 1023.8S
STINGRAY PT      1300   72      90/  8/ 12   N/A
YORK RVR RNG VA  1300   73      90/ 11/ 13 1022.9R
YORKTOWN VA      1300   68 76   10/  6/  7 1023.2R
JAMESTOWN VA     1300   66      30/  6/  8   N/A
DOMINION TERM VA 1300   72      70/ 12/ 15 1023.1R
KIPTOPEKE VA     1300      78   80/ 10/ 16   N/A
CHES BAY BRIDGE  1300   72 75   50/ 17/ 19 1022.1F
CAPE HENRY VA    1300   72      70/ 19/ 22 1021.4R
CHESAPEAKE LGHT  1200   71      60/ 25/ 26 1022.6F
WILLOUBY STN VA  1300   72      70/ 14/ 16 1021.6R
S CRANEY ISL VA  1300           40/ 12/ 14 1022.4F
CAPE HENRY BUOY  1300      75                N/A     6/ 7   2/11
1ST LANDING BUOY 1300   73      70/ 17/ 21 1022.2F
CAPE CHARLES BUO 1300      74                N/A     6/ 8   3/ 8
OFFSHORE WE BUOY 1300      74                N/A     7/ 8   3/ 8
64NM E OF VA BCH 1300   74 77   40/ 19/ 21 1020.8S   7/ 7   5/ 8
DUCK PIER NC     1300   72 74   40/ 20/ 23 1020.7S
44100 DUCK FRF   1300      74                N/A     6/ 7   2/11
44056 DUCK FRF   1300                        N/A     6/ 6   2/11
OREGON INLET NC  1300   74 73   20/ 17/ 23 1020.4S
HATTERAS NC      1300   73 73   30/ 13/ 18 1019.6S
DIAMOND SHLS NC  1300   79      80/ 21/ 25 1018.1F   7/ 8   3/ 8
CAPE LOOKOUT NC  1200   72      20/ 13/ 16 1019.2S
$$


USA.gov is the U.S. government's official web portal to all federal, state and local government web resources and services.